Location: Cosy Dell
(34.2789°N, 117.4537°W)
Time: 11:45:08
(UTC+00:00)

deb Chang Zheng 4 - Pass Details

Date: 14 July 2020
Orbit: 603 x 626 km, 98.6° (Epoch: 08 August)

Event Time Altitude Azimuth Distance (km) Brightness Sun altitude
Rises 11:30:30 0° 19° (NNE) 2,869 8.0 -14.4°
Reaches altitude 10° 11:32:44 10° 25° (NNE) 1,965 7.2 -14.0°
Maximum altitude 11:36:53 49° 101° (E) 786 4.4 -13.3°
Drops below altitude 10° 11:41:01 10° 176° (S) 1,965 5.8 -12.7°
Enters shadow 11:42:14 - 180° (S) 2,454 6.3 -12.5°
